Location: Kumla
(59.1265°N, 15.1401°E)
Time: 08:08:44
(UTC+01:00)

Transit 4A - Pass Details

Date: 04 December 2023
Orbit: 870 x 973 km, 66.8° (Epoch: 02 March)

Event Time Altitude Azimuth Distance (km) Brightness Sun altitude
Exits shadow 05:35:21 31° 243° (WSW) 1,548 8.6 -20.7°
Drops below altitude 10° 05:40:27 10° 184° (S) 2,580 10.3 -20.1°
Sets 05:43:09 0° 175° (S) 3,501 11.1 -19.7°
